Regional Weather Roundup
Issued by NWS

Home | Current Version | Previous Version | Graphics & Text | Print | Product List | Glossary On
Versions: 1 2 3 4 5 6 7 8 9 10 11 12 13 14 15 16 17 18 19 20 21 22 23 24 25 26 27 28 29 30 31 32 33 34 35 36 37 38 39 40 41 42 43 44 45 46 47 48 49 50
000
ASUS43 KFSD 280402
RWRSD

WEATHER ROUNDUP FOR SOUTH DAKOTA
NATIONAL WEATHER SERVICE SIOUX FALLS SD
1100 PM CDT WED APR 27 2016

NOTE: "FAIR" INDICATES FEW OR NO CLOUDS BELOW 12,000 FEET WITH NO
SIGNIFICANT WEATHER AND/OR OBSTRUCTIONS TO VISIBILITY.


SDZ001>005-009-010-012>017-280500-
NORTHWEST AND NORTH CENTRAL SOUTH DAKOTA

CITY           SKY/WX    TMP DP  RH WIND       PRES   REMARKS
BUFFALO          N/A     33  32  96 N13       29.92R WCI  24
FAITH            N/A     32  30  92 N13       29.92S WCI  22
MOBRIDGE       CLOUDY    39  36  89 NE10      29.92R
$$

SDZ012>016-024>037-041>051-057-063-072>074-280500-
SOUTHWEST AND SOUTH CENTRAL SOUTH DAKOTA

CITY           SKY/WX    TMP DP  RH WIND       PRES   REMARKS
RAPID CTY ARPT FLURRIES  32  31  96 N14       29.93R WCI  22
PIERRE         LGT RAIN  36  34  92 NE20      29.87R
CUSTER         FLURRIES  27  22  81 N10G18    29.85R WCI  17
ELLSWORTH AFB  FLURRIES  32  32 100 N16       29.92  WCI  21
PHILIP         CLOUDY    34  33  96 N12       29.90R WCI  25
PINE RIDGE     LGT SNOW  32  29  88 N9        29.89R FOG     WCI  24
WINNER         LGT RAIN  40  36  86 N12       29.82R
$$

SDZ004>011-016>023-039-040-280500-
NORTHEAST SOUTH DAKOTA

CITY           SKY/WX    TMP DP  RH WIND       PRES   REMARKS
ABERDEEN       LGT RAIN  38  34  85 NE20      29.92S
WATERTOWN      LGT RAIN  40  37  89 E17G26    29.83R
BROOKINGS      CLOUDY    40  38  93 E16G22    29.80R
SISSETON         N/A     41  32  70 E20       29.92S
$$

SDZ017-020-022-023-036>040-048>070-280500-
SOUTHEAST SOUTH DAKOTA

CITY           SKY/WX    TMP DP  RH WIND       PRES   REMARKS
SIOUX FALLS    LGT RAIN  42  39  89 E18       29.75S
HURON          LGT RAIN  40  39  97 NE7       29.84R
MITCHELL       LGT RAIN  42  41  96 N9        29.81R FOG
YANKTON        CLOUDY    43  39  87 NE13      29.72R
$$

ABBREVIATIONS USED IN REMARKS
   TC - TEMPERATURE IN CELSIUS
  WCI - WIND CHILL INDEX
   HX - HEAT INDEX
  VSB - VISIBILITY





USA.gov is the U.S. government's official web portal to all federal, state and local government web resources and services.